Location: Cerroniocc
(13.7547°S, 72.0222°W)
Time: 19:51:01
(UTC+00:00)

CZ-4 R/B - Pass Details

Date: 05 July 2020
Orbit: 533 x 596 km, 97.8° (Epoch: 11 August)

Event Time Altitude Azimuth Distance (km) Brightness Sun altitude
Exits shadow 22:58:30 - 122° (ESE) 2,114 3.6 -6.5°
Reaches altitude 10° 22:59:24 10° 112° (ESE) 1,902 3.4 -6.7°
Maximum altitude 23:01:25 13° 82° (E) 1,677 3.3 -7.2°
Drops below altitude 10° 23:03:26 10° 52° (NE) 1,875 3.7 -7.6°
Sets 23:06:33 0° 25° (NNE) 2,749 4.9 -8.3°
